TimeCET,TemperatureF,Dew PointF,Humidity,Sea Level PressureIn,VisibilityMPH,Wind Direction,Wind SpeedMPH,Gust SpeedMPH,PrecipitationIn,Events,Conditions,WindDirDegrees,DateUTC
12:15 AM,39.2,35.6,87,29.98,6.2,NNE,1.2,-,N/A,,Partly Cloudy,30,2013-02-17 23:15:00
12:45 AM,39.2,35.6,87,29.98,6.2,NE,1.2,-,N/A,,Partly Cloudy,50,2013-02-17 23:45:00
1:15 AM,37.4,35.6,93,29.98,6.2,NE,1.2,-,N/A,,Partly Cloudy,50,2013-02-18 00:15:00
1:45 AM,37.4,35.6,93,29.98,6.2,NE,2.3,-,N/A,,Partly Cloudy,50,2013-02-18 00:45:00
2:15 AM,35.6,35.6,100,29.98,6.2,NNE,3.5,-,N/A,,Scattered Clouds,30,2013-02-18 01:15:00
2:45 AM,35.6,35.6,100,29.95,6.2,NE,3.5,-,N/A,,Scattered Clouds,50,2013-02-18 01:45:00
3:15 AM,37.4,35.6,93,29.95,6.2,NE,3.5,-,N/A,,Scattered Clouds,40,2013-02-18 02:15:00
3:45 AM,37.4,35.6,93,29.95,6.2,NE,2.3,-,N/A,,Scattered Clouds,40,2013-02-18 02:45:00
4:15 AM,37.4,35.6,93,29.92,5.0,NNE,2.3,-,N/A,,Scattered Clouds,20,2013-02-18 03:15:00
4:45 AM,35.6,33.8,93,29.92,5.0,NE,2.3,-,N/A,,Scattered Clouds,40,2013-02-18 03:45:00
5:15 AM,35.6,33.8,93,29.92,5.0,NNE,2.3,-,N/A,,Scattered Clouds,30,2013-02-18 04:15:00
5:45 AM,35.6,33.8,93,29.92,5.0,NNE,2.3,-,N/A,,Scattered Clouds,20,2013-02-18 04:45:00
6:15 AM,35.6,33.8,93,29.92,5.0,North,1.2,-,N/A,,Scattered Clouds,10,2013-02-18 05:15:00
6:45 AM,35.6,33.8,93,29.95,5.0,NE,1.2,-,N/A,,Scattered Clouds,40,2013-02-18 05:45:00
7:15 AM,35.6,33.8,93,29.95,5.0,NE,2.3,-,N/A,,Scattered Clouds,50,2013-02-18 06:15:00
7:45 AM,35.6,33.8,93,29.95,5.0,NNE,1.2,-,N/A,,Scattered Clouds,20,2013-02-18 06:45:00
8:15 AM,35.6,33.8,93,29.95,5.0,NNE,2.3,-,N/A,,Mostly Cloudy,20,2013-02-18 07:15:00
8:45 AM,35.6,33.8,93,29.95,5.0,NE,3.5,-,N/A,,Mostly Cloudy,50,2013-02-18 07:45:00
9:15 AM,37.4,35.6,93,29.95,5.0,NNE,3.5,-,N/A,,Mostly Cloudy,30,2013-02-18 08:15:00
9:45 AM,37.4,35.6,93,29.95,5.0,NNE,4.6,-,N/A,,Mostly Cloudy,30,2013-02-18 08:45:00
10:15 AM,39.2,37.4,93,29.95,5.0,North,4.6,-,N/A,,Mostly Cloudy,10,2013-02-18 09:15:00
10:45 AM,41.0,37.4,87,29.98,5.0,NNE,3.5,-,N/A,,Mostly Cloudy,20,2013-02-18 09:45:00
11:15 AM,42.8,39.2,87,29.98,5.0,NNE,5.8,-,N/A,,Mostly Cloudy,30,2013-02-18 10:15:00
11:45 AM,46.4,39.2,76,29.98,5.0,NNE,3.5,-,N/A,,Mostly Cloudy,20,2013-02-18 10:45:00
12:15 PM,46.4,39.2,76,29.95,5.0,North,3.5,-,N/A,,Mostly Cloudy,10,2013-02-18 11:15:00
12:45 PM,46.4,39.2,76,29.95,5.0,North,3.5,-,N/A,,Mostly Cloudy,10,2013-02-18 11:45:00
1:15 PM,48.2,39.2,71,29.95,5.0,North,1.2,-,N/A,,Mostly Cloudy,10,2013-02-18 12:15:00
1:45 PM,50.0,39.2,66,29.95,5.0,NNW,3.5,-,N/A,,Scattered Clouds,340,2013-02-18 12:45:00
2:15 PM,50.0,39.2,66,29.92,5.0,North,4.6,-,N/A,,Scattered Clouds,350,2013-02-18 13:15:00
2:45 PM,50.0,37.4,62,29.92,5.0,East,2.3,-,N/A,,Scattered Clouds,80,2013-02-18 13:45:00
3:15 PM,50.0,37.4,62,29.92,5.0,South,1.2,-,N/A,,Scattered Clouds,190,2013-02-18 14:15:00
3:45 PM,50.0,35.6,58,29.92,5.0,WNW,4.6,-,N/A,Rain,Light Rain,300,2013-02-18 14:45:00
4:15 PM,48.2,39.2,71,29.92,5.0,West,2.3,-,N/A,Rain,Light Rain,280,2013-02-18 15:15:00
4:45 PM,48.2,41.0,76,29.92,5.0,Calm,Calm,-,N/A,,Scattered Clouds,0,2013-02-18 15:45:00
5:15 PM,50.0,39.2,66,29.92,5.0,SSW,2.3,-,N/A,,Scattered Clouds,210,2013-02-18 16:15:00
5:45 PM,48.2,39.2,71,29.92,5.0,SW,1.2,-,N/A,,Scattered Clouds,230,2013-02-18 16:45:00
6:15 PM,46.4,39.2,76,29.92,5.0,West,1.2,-,N/A,,Scattered Clouds,270,2013-02-18 17:15:00
6:45 PM,46.4,41.0,81,29.95,5.0,WNW,1.2,-,N/A,,Scattered Clouds,300,2013-02-18 17:45:00
7:15 PM,44.6,41.0,87,29.95,5.0,Calm,Calm,-,N/A,,Scattered Clouds,0,2013-02-18 18:15:00
7:45 PM,44.6,37.4,76,29.95,5.6,North,8.1,-,N/A,,Scattered Clouds,350,2013-02-18 18:45:00
8:15 PM,42.8,35.6,76,29.95,5.6,North,5.8,-,N/A,,Partly Cloudy,10,2013-02-18 19:15:00
8:45 PM,41.0,35.6,81,29.95,5.6,NE,4.6,-,N/A,,Scattered Clouds,50,2013-02-18 19:45:00
9:15 PM,41.0,35.6,81,29.95,6.2,NNE,4.6,-,N/A,,Partly Cloudy,20,2013-02-18 20:15:00
9:45 PM,39.2,33.8,81,29.95,6.2,NNE,2.3,-,N/A,,Partly Cloudy,20,2013-02-18 20:45:00
10:15 PM,39.2,33.8,81,29.98,6.2,NNE,3.5,-,N/A,,Partly Cloudy,20,2013-02-18 21:15:00
10:45 PM,39.2,33.8,81,29.98,6.2,NE,2.3,-,N/A,,Partly Cloudy,50,2013-02-18 21:45:00
11:15 PM,39.2,35.6,87,29.98,4.3,NNE,3.5,-,N/A,,Partly Cloudy,20,2013-02-18 22:15:00
11:45 PM,39.2,35.6,87,29.98,3.7,NNE,2.3,-,N/A,,Partly Cloudy,30,2013-02-18 22:45:00